This demonstration page uses our WeatherBlox Daily Observations layout. Learn more.

Left ArrowRight Arrow

36.19886, -115.1175

Hourly Observations for August 28, 2015

Temp ( °F °C ) Dew Point ( °F °C ) Humidity (%) Winds ( mph kmh ) Pressure ( in mb ) Visibility ( mi km ) Precip ( " mm )
12:53 am 00:53 Clear 85 29.4 51 10.6 31 31 NNW 3 6 29.92 1013 10 16 0.00 0.00
1:53 am 01:53 Clear 84 28.9 51 10.6 32 32 NW 3 6 29.92 1013 10 16 0.00 0.00
2:53 am 02:53 Clear 82 27.8 53 11.7 37 37 WNW 6 9 29.92 1013 10 16 0.00 0.00
3:53 am 03:53 Clear 81 27.2 53 11.7 38 38 NNW 3 6 29.93 1013 10 16 0.00 0.00
4:53 am 04:53 Clear 80 26.7 53 11.7 39 39 NNW 5 7 29.92 1013 10 16 0.00 0.00
5:53 am 05:53 Clear 79 26.1 52 11.1 39 39 NNW 5 7 29.94 1014 10 16 0.00 0.00
6:53 am 06:53 Sunny 81 27.2 52 11.1 37 37 N 3 6 29.96 1014 10 16 0.00 0.00
7:53 am 07:53 Sunny 85 29.4 53 11.7 33 33 N 5 7 29.97 1015 10 16 0.00 0.00
8:53 am 08:53 Sunny 91 32.8 52 11.1 26 26 Calm 29.96 1015 10 16 0.00 0.00
9:53 am 09:53 Sunny 92 33.3 53 11.7 27 27 SE 3 6 29.97 1015 10 16 0.00 0.00
10:53 am 10:53 Sunny 96 35.6 53 11.7 23 23 VRB 5 7 29.96 1015 10 16 0.00 0.00
11:53 am 11:53 Sunny 96 35.6 53 11.7 23 23 SSE 5 7 29.93 1014 10 16 0.00 0.00
12:53 pm 12:53 Sunny 98 36.7 53 11.7 22 22 SE 12 19 29.91 1013 10 16 0.00 0.00
1:53 pm 13:53 Sunny 98 36.7 52 11.1 21 21 ESE 8 13 29.89 1012 10 16 0.00 0.00
2:53 pm 14:53 Sunny 102 38.9 48 8.9 16 16 SE 8 13 29.86 1011 10 16 0.00 0.00
3:53 pm 15:53 Sunny 102 38.9 45 7.2 14 14 undefined N/A 29.83 1010 10 16 0.00 0.00
4:53 pm 16:53 Sunny 103 39.4 46 7.8 15 15 SSE 8 13 29.81 1009 10 16 0.00 0.00
5:53 pm 17:53 Sunny 102 38.9 46 7.8 15 15 SE 7 11 29.80 1009 10 16 0.00 0.00
6:53 pm 18:53 Sunny 101 38.3 46 7.8 15 15 SSE 5 7 29.79 1009 10 16 0.00 0.00
7:53 pm 19:53 Clear 98 36.7 45 7.2 16 16 SE 3 6 29.80 1009 10 16 0.00 0.00
8:53 pm 20:53 Clear 98 36.7 50 10 20 20 WSW 3 6 29.82 1010 10 16 0.00 0.00
9:53 pm 21:53 Clear 95 35 53 11.7 24 24 NW 3 6 29.82 1010 10 16 0.00 0.00
10:53 pm 22:53 Clear 93 33.9 54 12.2 27 27 WNW 3 6 29.82 1010 10 16 0.00 0.00
11:53 pm 23:53 Clear 89 31.7 52 11.1 28 28 NNW 3 6 29.82 1010 10 16 0.00 0.00

Powered by AerisWeather